Flag for Germany Weather past 2 weeks in Geislingen an der Steige, Baden-Württemberg, Germany

Now
49 °F

Scattered clouds.


Feels Like: 49 °F
Forecast: 49 / 69 °F
Wind: 3 mph from Southwest

Location: Stoetten

Current Time: Apr 26, 2015 at 9:12:19 AM

Latest Report: Apr 26, 2015 at 8:00 AM


Visibility: 41 mi

Pressure: 29.86 "Hg

Humidity: 90%

Dew point: 47 °F

Location of Geislingen an der SteigeLocation

Historic Weather in Geislingen an der Steige — Graph

°F

Geislingen an der Steige temperature yesterday

Maximum temperature yesterday: 59 °F (at 3:00 PM)
Minimum temperature yesterday: 45 °F (at 8:00 AM)
Average temperature yesterday: 53 °F

Past Weeks' High & Low Weather Summary

 TemperatureHumidityPressure
High70 °F (Apr 15, 5:00 PM)98% (Apr 25, 11:00 PM)30.46 "Hg (Apr 25, 11:00 PM)
Low32 °F (Apr 19, 5:00 AM)24% (Apr 15, 5:00 PM)29.83 "Hg (Apr 25, 3:00 PM)
Average50 °F59%30.16 "Hg
* Reported Apr 11 8:00 AM — Apr 26 8:00 AM, Geislingen an der Steige, Weather by CustomWeather, © 2015

Note: Actual official high and low records may vary slightly from our data, if they occured in-between our weather recording intervals... More about our weather records

Advertising

Geislingen an der Steige weather history for previous 24 hours

 ConditionsComfort  
Time TempWeatherWind HumidityBarometerVisibility
8:00 AM
Sun, Apr 26
49 °FScattered clouds.3 mph90%29.86 "Hg40 mi
7:00 AM48 °FPartly sunny.3 mph94%29.86 "Hg34 mi
6:00 AM47 °FOvercast.3 mph97%29.87 "Hg34 mi
5:00 AM48 °FOvercast.5 mph95%29.88 "Hg25 mi
4:00 AM48 °FOvercast.5 mph94%29.88 "Hg31 mi
3:00 AM49 °FOvercast.5 mph95%29.88 "Hg19 mi
2:00 AM49 °FLight rain. Overcast.7 mph91%29.88 "Hg28 mi
1:00 AM50 °FOvercast.6 mph91%29.88 "Hg22 mi
12:00 AM50 °FOvercast.6 mph90%29.87 "Hg15 mi
11:00 PM
Sat, Apr 25
49 °FFog.5 mph98%29.88 "Hg3 mi
10:00 PM50 °FOvercast.3 mph97%29.88 "Hg7 mi
9:00 PM50 °FOvercast.5 mph96%29.88 "Hg9 mi
8:00 PM51 °FOvercast.3 mph97%29.87 "Hg9 mi
7:00 PM51 °FLight rain. Overcast.3 mph95%29.87 "Hg5 mi
6:00 PM51 °FLight rain. Overcast.6 mph94%29.88 "Hg9 mi
5:00 PM54 °FLight rain. Overcast.7 mph78%29.86 "Hg14 mi
4:00 PM55 °FLight rain. Overcast.8 mph75%29.85 "Hg25 mi
3:00 PM59 °FOvercast.6 mph60%29.83 "Hg31 mi
2:00 PM58 °FOvercast.5 mph58%29.84 "Hg43 mi
1:00 PM55 °FOvercast.2 mph70%29.87 "Hg47 mi
12:00 PM52 °FLight rain. Overcast.3 mph75%29.90 "Hg31 mi
11:00 AM53 °FLight rain. Overcast.9 mph59%29.90 "Hg19 mi
10:00 AM54 °FLight rain. Overcast.7 mph52%29.88 "Hg25 mi
9:00 AM55 °FOvercast.6 mph50%29.88 "Hg31 mi
Weather by CustomWeather, © 2015

See weather overviewHow to use our weather pages